Regional Weather Roundup
Issued by NWS Charleston, WV

Home | Current Version | Previous Version | Graphics & Text | Print | Product List | Glossary On
Versions: 1 2 3 4 5 6 7 8 9 10 11 12 13 14 15 16 17 18 19 20 21 22 23 24 25 26 27 28 29 30 31 32 33 34 35 36 37 38 39 40 41 42 43 44 45 46 47 48 49 50
000
ASUS41 KRLX 262310
RWRRLX
West Virginia Regional Weather Roundup
National Weather Service Charleston WV
600 PM EST FRI DEC 26 2014

Note: "fair" indicates few or no clouds below 12,000 feet with no
significant weather and/or obstructions to visibility.

WVZ003-270000-
Northern Panhandle of West Virginia

CITY           SKY/WX    TMP DP  RH WIND       PRES   REMARKS
WHEELING       MOCLDY    44  32  62 S9        30.20S
$$

WVZ009-270000-
Northwest West Virginia

CITY           SKY/WX    TMP DP  RH WIND       PRES   REMARKS
PARKERSBURG    CLOUDY    47  31  53 S5        30.26R
$$

WVZ006-270000-
Western West Virginia

CITY           SKY/WX    TMP DP  RH WIND       PRES   REMARKS
HUNTINGTON     CLOUDY    48  31  51 SE3       30.23S
$$

WVZ015-270000-
West Central West Virginia

CITY           SKY/WX    TMP DP  RH WIND       PRES   REMARKS
CHARLESTON     CLOUDY    49  30  48 S7        30.24S
$$

WVZ022-031-270000-
North Central West Virginia

CITY           SKY/WX    TMP DP  RH WIND       PRES   REMARKS
CLARKSBURG     CLOUDY    44  31  60 SW7       30.24R
MORGANTOWN     CLOUDY    46  27  47 SW5       30.24R
$$

WVZ025-035-042-045-270000-
Southern West Virginia

CITY           SKY/WX    TMP DP  RH WIND       PRES   REMARKS
BECKLEY        CLOUDY    39  25  57 SE3       30.26S
LOGAN            N/A     46  30  53 S3        30.24F
BLUEFIELD      CLOUDY    50  21  32 CALM      30.27S
LEWISBURG      MOCLDY    40  28  62 CALM      30.27S
$$

WVZ047-270000-
Northern Mountains of West Virginia

CITY           SKY/WX    TMP DP  RH WIND       PRES   REMARKS
ELKINS         CLOUDY    42  26  53 CALM      30.24R
$$

WVZ052-270000-
Eastern Panhandle of West Virginia

CITY           SKY/WX    TMP DP  RH WIND       PRES   REMARKS
MARTINSBURG    CLEAR     42  25  50 CALM      30.24R
PETERSBURG     MOCLDY    40  31  71 CALM      30.23R
$$


USA.gov is the U.S. government's official web portal to all federal, state and local government web resources and services.